Change the Weather History Date:

Sunday, December 22, 2013

  Actual Average (KMIE) Record (KMIE)
Temperature  
Mean Temperature 35 °F 29 °F  
Max Temperature 78 °F 36 °F 64 °F (1967)
Min Temperature 30 °F 22 °F -21 °F (1989)
Degree Days  
Heating Degree Days 30 36  
Month to date heating degree days 730  
Since 1 July heating degree days 1865  
Cooling Degree Days 0 0  
Month to date cooling degree days 0  
Year to date cooling degree days 956  
Moisture  
Dew Point 35 °F    
Average Humidity 98    
Maximum Humidity 100    
Minimum Humidity 94    
Precipitation  
Precipitation 0.03 in 0.09 in 1.73 in (1967)
Month to date precipitation 2.07  
Year to date precipitation 39.31  
Sea Level Pressure  
Sea Level Pressure 29.77 in    
Wind  
Wind Speed 14 mph (WSW)    
Max Wind Speed 23 mph    
Max Gust Speed 33 mph    
Visibility 7 miles    
Events Rain , Snow    
T = Trace of Precipitation, MM = Missing Value Source: NWS Daily Summary

Daily Weather History Graph

Daily Weather History Graph

Search for Another Location

Airport or City:

Trip Planner

Search our weather history database for the weather conditions in past years. The results will help you decide how hot, cold, wet, or windy it might be!

Date:

Astronomy

Dec. 22, 2013 Rise Set
Actual Time 8:03 AM EST 5:19 PM EST
Civil Twilight 7:32 AM EST 5:50 PM EST
Nautical Twilight 6:57 AM EST 6:25 PM EST
Astronomical Twilight 6:24 AM EST 6:58 PM EST
Moon 10:32 PM EST (12/22) 10:58 AM EST (12/22)
Length of Visible Light 10h 18m
Length of Day
9h 16m
Waning Gibbous, 77% of the Moon is Illuminated
Dec 22
Waning Gibbous
Dec 25
Last Quarter
Jan 1
New
Jan 7
First Quarter
Jan 15
Full

Hourly Weather History & Observations

Time (EST) Temp. Windchill Dew Point Humidity Pressure Visibility Wind Dir Wind Speed Gust Speed Precip Events Conditions
12:15 AM 34.7 °F 23.7 °F 34.7 °F 100% 29.46 in 5.0 mi East 19.6 mph 24.2 mph 0.01 in Rain Light Rain
12:35 AM 34.7 °F 25.9 °F 34.7 °F 100% 29.48 in 10.0 mi ENE 12.7 mph 29.9 mph 0.01 in   Overcast
12:55 AM 34.9 °F 26.6 °F 34.9 °F 100% 29.51 in 10.0 mi North 11.5 mph 16.1 mph 0.01 in   Overcast
1:15 AM 34.9 °F 27.7 °F 34.9 °F 100% 29.52 in 10.0 mi NNE 9.2 mph 13.8 mph N/A   Overcast
1:35 AM 34.7 °F 26.9 °F 34.7 °F 100% 29.49 in 10.0 mi ENE 10.4 mph - N/A   Overcast
1:55 AM 34.7 °F 27.5 °F 34.7 °F 100% 29.50 in 5.0 mi ENE 9.2 mph - N/A Rain Light Rain
2:15 AM 34.7 °F 28.8 °F 34.7 °F 100% 29.49 in 5.0 mi East 6.9 mph - 0.01 in Rain Light Rain
2:35 AM 34.9 °F 29.9 °F 34.9 °F 100% 29.48 in 3.0 mi NE 5.8 mph - 0.01 in Rain Light Rain
2:55 AM 35.1 °F 32.2 °F 35.1 °F 100% 29.50 in 5.0 mi NE 3.5 mph - 0.01 in   Overcast
3:15 AM 35.2 °F 31.2 °F 35.2 °F 100% 29.50 in 3.0 mi East 4.6 mph - N/A   Overcast
3:35 AM 35.8 °F 33.0 °F 35.8 °F 100% 29.51 in 2.5 mi ESE 3.5 mph - N/A   Overcast
3:55 AM 35.8 °F - 35.8 °F 100% 29.51 in 2.0 mi Calm Calm - N/A   Overcast
4:15 AM 36.0 °F 33.3 °F 36.0 °F 100% 29.52 in 1.8 mi SSE 3.5 mph - N/A   Overcast
4:35 AM 36.9 °F 30.7 °F 36.9 °F 100% 29.52 in 3.0 mi South 8.1 mph - 0.01 in   Overcast
4:55 AM 38.1 °F 29.8 °F 38.1 °F 100% 29.53 in 2.0 mi SSW 13.8 mph - 0.01 in   Overcast
5:15 AM 40.5 °F 30.9 °F 40.5 °F 100% 29.54 in 7.0 mi SW 20.7 mph 26.5 mph N/A   Overcast
5:35 AM 40.6 °F 32.3 °F 40.6 °F 100% 29.55 in 7.0 mi WSW 16.1 mph 27.6 mph N/A   Overcast
5:55 AM 39.7 °F 30.0 °F 39.7 °F 100% 29.58 in 10.0 mi WSW 20.7 mph 27.6 mph N/A   Overcast
6:15 AM 38.8 °F 30.8 °F 38.8 °F 100% 29.59 in 5.0 mi WSW 13.8 mph 25.3 mph N/A   Overcast
6:35 AM 37.9 °F 27.6 °F 37.9 °F 100% 29.61 in 4.0 mi WSW 20.7 mph 26.5 mph N/A   Overcast
6:55 AM 37.4 °F 28.9 °F 37.4 °F 100% 29.62 in 4.0 mi WSW 13.8 mph 17.3 mph N/A   Overcast
7:15 AM 36.9 °F 27.8 °F 36.9 °F 100% 29.64 in 4.0 mi WSW 15.0 mph 18.4 mph N/A   Overcast
7:35 AM 36.7 °F 27.6 °F 36.7 °F 100% 29.65 in 2.5 mi WSW 15.0 mph 21.9 mph N/A   Overcast
7:55 AM 36.7 °F 29.4 °F 36.7 °F 100% 29.66 in 4.0 mi WSW 10.4 mph - N/A   Overcast
8:15 AM 36.9 °F 28.7 °F 36.9 °F 100% 29.67 in 3.0 mi WSW 12.7 mph - N/A   Overcast
8:35 AM 37.2 °F 27.3 °F 37.2 °F 100% 29.69 in 7.0 mi WSW 18.4 mph 24.2 mph N/A   Overcast
8:55 AM 37.8 °F 28.3 °F 37.8 °F 100% 29.71 in 2.5 mi WSW 17.3 mph 24.2 mph N/A   Overcast
9:15 AM 37.9 °F 27.9 °F 37.9 °F 100% 29.72 in 3.0 mi WSW 19.6 mph 31.1 mph N/A   Overcast
9:35 AM 38.1 °F 27.6 °F 38.1 °F 100% 29.73 in 10.0 mi WSW 21.9 mph 27.6 mph N/A   Overcast
9:55 AM 38.3 °F 27.8 °F 38.3 °F 100% 29.75 in 10.0 mi WSW 21.9 mph 33.4 mph N/A   Overcast
10:15 AM 37.9 °F 27.6 °F 37.9 °F 100% 29.76 in 10.0 mi WSW 20.7 mph 32.2 mph N/A   Overcast
10:35 AM 37.9 °F 27.1 °F 37.9 °F 100% 29.78 in 10.0 mi WSW 23.0 mph 31.1 mph N/A   Overcast
10:55 AM 37.8 °F 28.0 °F 37.8 °F 100% 29.79 in 10.0 mi WSW 18.4 mph 26.5 mph N/A   Overcast
11:15 AM 37.9 °F 27.9 °F 37.9 °F 100% 29.78 in 10.0 mi WSW 19.6 mph 27.6 mph N/A   Overcast
11:35 AM 38.3 °F 29.7 °F 38.3 °F 100% 29.80 in 10.0 mi WSW 15.0 mph 26.5 mph N/A   Overcast
11:55 AM 38.5 °F 28.6 °F 37.9 °F 98% 29.81 in 10.0 mi WSW 19.6 mph 27.6 mph N/A   Overcast
12:15 PM 38.3 °F 27.8 °F 36.9 °F 95% 29.82 in 10.0 mi WSW 21.9 mph 26.5 mph N/A   Overcast
12:35 PM 37.9 °F 27.9 °F 36.3 °F 94% 29.82 in 7.0 mi WSW 19.6 mph 26.5 mph N/A   Overcast
12:55 PM 37.6 °F 27.1 °F 36.3 °F 95% 29.82 in 7.0 mi WSW 20.7 mph 26.5 mph N/A Snow Light Snow
1:15 PM 37.4 °F 27.2 °F 36.1 °F 95% 29.83 in 10.0 mi WSW 19.6 mph 28.8 mph N/A   Overcast
1:35 PM 37.4 °F 27.8 °F 35.8 °F 94% 29.83 in 5.0 mi WSW 17.3 mph 25.3 mph N/A   Overcast
1:55 PM 37.0 °F 27.4 °F 35.6 °F 95% 29.84 in 4.0 mi WSW 17.3 mph 26.5 mph N/A   Overcast
2:15 PM 36.9 °F 27.1 °F 36.0 °F 97% 29.84 in 5.0 mi WSW 17.3 mph 26.5 mph N/A   Overcast
2:35 PM 36.9 °F 28.2 °F 36.1 °F 97% 29.85 in 7.0 mi WSW 13.8 mph - N/A   Overcast
2:55 PM 37.0 °F 28.5 °F 36.0 °F 96% 29.85 in 7.0 mi WSW 13.8 mph 20.7 mph N/A   Overcast
3:15 PM 36.9 °F 27.8 °F 35.2 °F 94% 29.86 in 10.0 mi WSW 15.0 mph 24.2 mph N/A   Overcast
3:35 PM 36.3 °F 26.8 °F 34.7 °F 94% 29.87 in 10.0 mi WSW 16.1 mph 20.7 mph N/A   Overcast
3:55 PM 36.0 °F 25.6 °F 34.7 °F 95% 29.89 in 7.0 mi West 18.4 mph 24.2 mph N/A   Overcast
4:15 PM 34.9 °F 24.9 °F 34.2 °F 97% 29.90 in 7.0 mi West 16.1 mph 24.2 mph N/A   Overcast
4:35 PM 34.5 °F 24.1 °F 33.8 °F 97% 29.91 in 2.5 mi WSW 17.3 mph - N/A   Overcast
4:55 PM 34.2 °F 24.4 °F 33.8 °F 99% 29.91 in 3.0 mi West 15.0 mph - N/A   Overcast
5:15 PM 33.8 °F 23.9 °F 33.4 °F 99% 29.93 in 10.0 mi WSW 15.0 mph 19.6 mph N/A   Overcast
5:35 PM 34.2 °F 24.8 °F 32.9 °F 95% 29.92 in 10.0 mi West 13.8 mph - N/A   Overcast
5:55 PM 34.2 °F 24.4 °F 32.5 °F 94% 29.92 in 10.0 mi West 15.0 mph 21.9 mph N/A   Overcast
6:15 PM 34.0 °F 23.0 °F 32.4 °F 94% 29.92 in 10.0 mi West 18.4 mph 24.2 mph N/A   Overcast
6:35 PM 34.0 °F 26.6 °F 32.4 °F 94% 29.94 in 7.0 mi WSW 9.2 mph - N/A   Overcast
6:55 PM 34.0 °F 25.5 °F 32.5 °F 94% 29.96 in 5.0 mi WSW 11.5 mph - N/A   Overcast
7:15 PM 33.8 °F 25.8 °F 32.4 °F 94% 29.96 in 7.0 mi WSW 10.4 mph - N/A   Overcast
7:35 PM 33.8 °F 25.8 °F 32.2 °F 94% 29.97 in 10.0 mi WSW 10.4 mph - N/A   Overcast
7:55 PM 33.8 °F 24.8 °F 32.4 °F 94% 29.97 in 10.0 mi West 12.7 mph - N/A   Overcast
8:15 PM 33.8 °F 23.9 °F 32.4 °F 94% 29.98 in 5.0 mi West 15.0 mph - N/A Snow Light Snow
8:35 PM 33.4 °F 23.9 °F 32.2 °F 95% 29.98 in 10.0 mi WNW 13.8 mph - N/A   Overcast
8:55 PM 33.1 °F 23.9 °F 32.2 °F 96% 29.99 in 10.0 mi West 12.7 mph - N/A   Overcast
9:15 PM 32.7 °F 21.8 °F 32.2 °F 98% 30.00 in 5.0 mi WNW 17.3 mph - N/A   Overcast
9:35 PM 32.0 °F 21.2 °F 31.6 °F 99% 30.01 in 10.0 mi West 16.1 mph - N/A   Overcast
9:55 PM 32.0 °F 22.1 °F 31.1 °F 96% 30.01 in 10.0 mi West 13.8 mph - N/A   Overcast
10:15 PM 31.8 °F 21.4 °F 31.1 °F 97% 30.01 in 7.0 mi WNW 15.0 mph - N/A   Overcast
10:35 PM 31.5 °F 21.8 °F 31.1 °F 99% 30.01 in 10.0 mi WNW 12.7 mph - N/A   Overcast
10:55 PM 31.3 °F 22.1 °F 30.9 °F 99% 30.02 in 10.0 mi WNW 11.5 mph 18.4 mph N/A   Overcast
11:15 PM 31.1 °F 20.5 °F 30.4 °F 97% 30.03 in 10.0 mi WNW 15.0 mph - N/A   Overcast
11:35 PM 30.9 °F 20.2 °F 30.0 °F 96% 30.05 in 7.0 mi WNW 15.0 mph - N/A   Overcast
11:55 PM 30.9 °F 19.4 °F 29.3 °F 94% 30.06 in 10.0 mi West 17.3 mph - N/A   Overcast